Location: Brantford
(43.1330°N, 80.2670°W)
Time: 12:21:00
(UTC-05:00)

Explorer 11/Cluster Stage 4 - All Passes

Search period start: 15 November 2019 00:00
Search period end: 25 November 2019 00:00
Orbit: 467 x 1259 km, 28.8° (Epoch: 14 November)

Date Brightness Start Highest point End Pass type
(mag) Time Alt. Az. Time Alt. Az. Time Alt. Az.
15 Nov - 00:26:19 10° WSW 00:32:45 28° S 00:39:25 10° SE night (unlit)
15 Nov - 02:15:35 10° WSW 02:21:01 19° SSW 02:26:23 10° SSE night (unlit)
15 Nov - 20:42:12 10° S 20:45:38 14° SSE 20:49:20 10° SE visible
15 Nov - 22:27:47 10° SW 22:33:29 25° S 22:39:46 10° ESE night (unlit)
16 Nov - 00:15:32 10° WSW 00:21:47 27° S 00:28:21 10° SE night (unlit)
16 Nov - 02:04:57 10° WSW 02:10:01 18° SSW 02:15:04 10° SSE night (unlit)
16 Nov - 20:31:09 10° S 20:34:42 15° SSE 20:38:34 10° SE visible
16 Nov - 22:16:59 10° SW 22:22:33 25° S 22:28:46 10° ESE night (unlit)
17 Nov - 00:04:48 10° WSW 00:10:49 26° S 00:17:13 10° SE night (unlit)
17 Nov - 01:54:27 10° WSW 01:59:01 16° SSW 02:03:38 10° SSE night (unlit)
17 Nov - 20:20:13 10° SSW 20:23:48 16° SSE 20:27:44 10° ESE visible
17 Nov - 22:06:14 10° SW 22:11:38 25° S 22:17:42 10° ESE night (unlit)
17 Nov - 23:54:08 10° WSW 23:59:52 24° S 00:06:03 10° SE night (unlit)
18 Nov - 01:44:06 10° SW 01:48:01 14° SSW 01:52:01 10° S night (unlit)
18 Nov - 20:09:21 10° SSW 20:12:54 16° SSE 20:16:52 10° SE visible
18 Nov - 21:55:33 10° SW 22:00:44 25° S 22:06:37 10° SE night (unlit)
18 Nov - 23:43:32 10° WSW 23:48:55 22° S 23:54:48 10° SE night (unlit)
19 Nov - 01:34:02 10° SW 01:37:02 12° SSW 01:40:07 10° S night (unlit)
19 Nov - 19:58:34 10° SSW 20:02:03 16° SSE 20:05:57 10° SE visible
19 Nov - 21:44:55 10° SW 21:49:51 24° S 21:55:31 10° SE night (unlit)
19 Nov - 23:33:00 10° WSW 23:38:00 21° SSW 23:43:28 10° SSE night (unlit)
20 Nov - 01:24:40 10° SW 01:26:04 10° SSW 01:27:28 10° SSW night (unlit)
20 Nov - 19:47:50 10° SSW 19:51:12 16° SSE 19:55:00 10° SE visible
20 Nov - 21:34:20 10° SW 21:39:00 23° S 21:44:21 10° SE night (unlit)
20 Nov - 23:22:33 10° SW 23:27:05 18° SSW 23:32:03 10° SSE night (unlit)
21 Nov - 19:37:09 10° SSW 19:40:24 16° SSE 19:44:02 10° SE visible
21 Nov - 21:23:48 10° SW 21:28:10 21° S 21:33:10 10° SE night (unlit)
21 Nov - 23:12:14 10° SW 23:16:12 16° SSW 23:20:32 10° SSE night (unlit)
22 Nov - 19:26:32 10° SSW 19:29:36 16° SSE 19:33:04 10° SE visible
22 Nov - 21:13:20 10° SW 21:17:21 20° S 21:21:57 10° SE visible
22 Nov - 23:02:05 10° SW 23:05:19 14° SSW 23:08:50 10° SSE night (unlit)
23 Nov - 19:15:58 10° SSW 19:18:51 16° S 19:22:03 10° SE visible
23 Nov - 21:02:56 10° SW 21:06:33 18° S 21:10:40 10° SE visible
23 Nov - 22:52:17 10° SW 22:54:29 12° SSW 22:56:48 10° S night (unlit)
24 Nov - 19:05:27 10° SSW 19:08:05 15° S 19:11:01 10° SE visible
24 Nov - 20:52:37 10° SW 20:55:47 16° S 20:59:19 10° SSE visible
